Location: Newark
(52.8300°N, 8.0000°E)
Time: 16:52:13
(UTC+00:00)

STARLINK-1086 - Pass Details

Date: 31 January 2020
Orbit: 348 x 351 km, 53.0° (Epoch: 26 February)

Event Time Altitude Azimuth Distance (km) Brightness Sun altitude
Rises 16:53:59 0° 283° (WNW) 2,174 7.7 -6.9°
Reaches altitude 10° 16:56:03 10° 277° (W) 1,328 6.8 -7.2°
Maximum altitude 16:58:53 44° 204° (SSW) 504 3.8 -7.6°
Drops below altitude 10° 17:01:43 10° 130° (SE) 1,322 5.3 -8.0°
Enters shadow 17:03:25 - 124° (SE) 2,020 6.1 -8.2°
